Regional Weather Roundup
Issued by NWS Spokane, WA

Home | Current Version | Previous Version | Text Only | Print | Product List | Glossary On
Versions: 1 2 3 4 5 6 7 8 9 10 11 12 13 14 15 16 17 18 19 20 21 22 23 24 25 26 27 28 29 30 31 32 33 34 35 36 37 38 39 40 41 42 43 44 45 46 47 48 49 50
000
NZUS01 KOTX 300410
RWROTX
EASTERN WASHINGTON/NORTHERN IDAHO ROUNDUP
NATIONAL WEATHER SERVICE, SPOKANE WA
900 PM PDT FRI MAY 29 2015

Note: "fair" indicated few or no clouds below 12,000 feet with no
significant weather and/or obstructions to visibility.

...NORTHEAST WASHINGTON AND NORTHERN IDAHO PANHANDLE...

CITY           SKY/WX    TMP DP  RH WIND       PRES   REMARKS
SPOKANE INTL   CLOUDY    63  51  65 N16       29.94R
SPOKANE DOWNTO MOCLDY    66  49  54 N18G31    29.94R
COEUR D ALENE  MOCLDY    66  48  52 N8        29.92R
DEER PARK      RAIN      58  53  84 N20       29.98S
SANDPOINT      CLOUDY    64  52  63 N6        29.94S
BONNERS FERRY  FAIR      59  54  82 CALM      29.98S

...SOUTHEAST WASHINGTON AND SOUTHERN IDAHO PANHANDLE...

CITY           SKY/WX    TMP DP  RH WIND       PRES   REMARKS
WALLA WALLA    CLOUDY    78  51  38 SW7       29.84R
PULLMAN/MOSCOW CLOUDY    68  52  56 SE7       29.93S
LEWISTON       CLOUDY    77  48  35 S3        29.85F
LOWELL           N/A     65  56  72 CALM      29.90R

...COLUMBIA BASIN...

CITY           SKY/WX    TMP DP  RH WIND       PRES   REMARKS
EPHRATA        CLOUDY    74  50  42 NE12      29.84S
MOSES LAKE     CLOUDY    74  50  42 NE12      29.84S
TRI CITIES     CLOUDY    84  51  31 S12       29.79R
HERMISTON      LGT RAIN  75  55  49 MISG      29.83R
PENDLETON      CLOUDY    72  53  51 S10G24    29.88R

...EAST SLOPES CASCADES...

CITY           SKY/WX    TMP DP  RH WIND       PRES   REMARKS
THE DALLES     PTCLDY    78  50  37 W14G23    29.81S
YAKIMA         MOCLDY    80  54  40 VRB5      29.82R
ELLENSBURG     MOCLDY    73  57  57 NW16G22   29.86R
WENATCHEE      MOCLDY    72  59  63 W6        29.85R
OMAK           MOCLDY    65  59  81 NW3       29.87S

...SOUTHERN BRITISH COLUMBIA...

CITY           SKY/WX    TMP DP  RH WIND       PRES   REMARKS
PENTICTON      MOCLDY    66  57  72 NE3       29.88F
CASTLEGAR      MOCLDY    61  57  88 N6        29.99S
CRANBROOK      MOCLDY    54  50  87 CALM      30.03S

...WESTERN MONTANA...

CITY           SKY/WX    TMP DP  RH WIND       PRES   REMARKS
MISSOULA       MOCLDY    62  45  53 SE7       30.01R

...NEIGHBORING CITIES...

CITY           SKY/WX    TMP DP  RH WIND       PRES   REMARKS
SEATTLE        MOCLDY    68  52  56 W6        29.91R
CALGARY        CLOUDY    50  41  71 SE9       30.14R



USA.gov is the U.S. government's official web portal to all federal, state and local government web resources and services.